This is the latest recevied weather packets stored in our database for station/object WB4YDL. If no packets are shown the sender has not sent any weather packets the latest 10 day(s).
| Time | Temp. | Humidity | Pressure | Rain* | Wind** | Luminosity | Snow |
|---|---|---|---|---|---|---|---|
| 1777899817 | 17.22° C | 76% | 1007.3 hPa | 0 mm | - | 165 W/m² | - |
| 1777899514 | 17.22° C | 76% | 1007.2 hPa | 0 mm | - | 182 W/m² | - |
| 1777899212 | 17.22° C | 75% | 1007.5 hPa | 0 mm | - | 165 W/m² | - |
| 1777898909 | 16.67° C | 76% | 1007.3 hPa | 0 mm | - | 153 W/m² | - |
| 1777898606 | 16.67° C | 76% | 1007.3 hPa | 0 mm | - | 121 W/m² | - |
| 1777898303 | 16.67° C | 76% | 1007.2 hPa | 0 mm | - | 112 W/m² | - |
| 1777898001 | 16.67° C | 76% | 1007.3 hPa | 0 mm | - | 116 W/m² | - |
| 1777897697 | 16.67° C | 76% | 1007.3 hPa | 0 mm | - | 108 W/m² | - |
| 1777897394 | 16.67° C | 75% | 1007.2 hPa | 0 mm | - | 101 W/m² | - |
| 1777897089 | 16.67° C | 76% | 1007.3 hPa | 0 mm | - | 98 W/m² | - |
| 1777896786 | 16.67° C | 75% | 1007.2 hPa | 0 mm | - | 84 W/m² | - |
| 1777896484 | 16.67° C | 75% | 1007.4 hPa | 0 mm | - | 79 W/m² | - |
| 1777896181 | 16.67° C | 74% | 1007.4 hPa | 0 mm | - | 81 W/m² | - |
| 1777895878 | 16.67° C | 74% | 1006.8 hPa | 0 mm | - | 75 W/m² | - |
| 1777895576 | 16.67° C | 74% | 1006.8 hPa | 0 mm | - | 68 W/m² | - |
| 1777895273 | 16.67° C | 74% | 1006.9 hPa | 0 mm | - | 55 W/m² | - |
| 1777894970 | 16.11° C | 74% | 1007 hPa | 0 mm | - | 47 W/m² | - |
| 1777894667 | 16.11° C | 74% | 1006.9 hPa | 0 mm | - | 41 W/m² | - |
| 1777894364 | 16.11° C | 74% | 1006.8 hPa | 0 mm | - | 32 W/m² | - |
| 1777894062 | 16.11° C | 74% | 1006.7 hPa | 0 mm | - | 24 W/m² | - |
| 1777893758 | 16.11° C | 74% | 1006.7 hPa | 0 mm | - | 17 W/m² | - |
| 1777893455 | 16.11° C | 73% | 1006.6 hPa | 0 mm | - | 12 W/m² | - |
| 1777893151 | 16.11° C | 73% | 1006.7 hPa | 0 mm | - | 8 W/m² | - |
| 1777892848 | 16.11° C | 73% | 1006.9 hPa | 0 mm | - | 5 W/m² | - |
| 1777892545 | 16.11° C | 73% | 1006.7 hPa | 0 mm | - | 3 W/m² | - |
* Rain latest hour (hover to see other rain measurements)
** Current wind speed in m/s (hover to see current wind gust speed)